Location: *
(51.5000°N, 0.1100°W)
Time: 20:35:13
(UTC+00:00)

Cosmos 2082 Rocket - Pass Details

Date: 25 May 2024
Orbit: 832 x 853 km, 71.0° (Epoch: 16 June)

Event Time Altitude Azimuth Distance (km) Brightness Sun altitude
Rises 03:01:54 0° 268° (W) 3,423 4.9 -7.0°
Reaches altitude 10° 03:05:10 10° 286° (WNW) 2,489 4.4 -6.7°
Maximum altitude 03:09:04 18° 329° (NNW) 1,961 4.3 -6.2°
Drops below altitude 10° 03:12:58 10° 13° (NNE) 2,491 5.7 -5.8°
Sets 03:16:15 0° 32° (NNE) 3,427 7.3 -5.4°
